Weather History for Buffalo, SD

Change the Weather History Date:

Wednesday, February 20, 2013

  Actual Average Record
Temperature  
Mean Temperature 17 °F 25 °F  
Max Temperature 30 °F 35 °F 50 °F (2000)
Min Temperature 3 °F 14 °F -6 °F (2011)
Degree Days  
Heating Degree Days 48 40  
Month to date heating degree days 714 847  
Since 1 July heating degree days 5047 5486  
Cooling Degree Days 0 0  
Month to date cooling degree days 0 0  
Year to date cooling degree days 0 0  
Moisture  
Dew Point 4 °F    
Average Humidity 61    
Maximum Humidity 83    
Minimum Humidity 39    
Precipitation  
Precipitation 0.00 in 0.01 in 0.26 in (2011)
Month to date precipitation 0.02 0.20  
Year to date precipitation 0.12 0.49  
Sea Level Pressure  
Sea Level Pressure 29.99 in    
Wind  
Wind Speed 15 mph (ESE)    
Max Wind Speed 30 mph    
Max Gust Speed 33 mph    
T = Trace of Precipitation, MM = Missing Value Source: NWS Daily Summary

Daily Weather History Graph

Daily Weather History Graph

Search for Another Location

Airport:

Trip Planner

Search our weather history database for the weather conditions in past years. The results will help you decide how hot, cold, wet, or windy it might be!

Date:

Astronomy

Feb. 20, 2013 Rise Set
Actual Time 6:47 AM MST 5:28 PM MST
Civil Twilight 6:17 AM MST 5:59 PM MST
Nautical Twilight 5:42 AM MST 6:33 PM MST
Astronomical Twilight 5:08 AM MST 7:07 PM MST
Moon 12:43 PM MST (2/20) 3:18 AM MST (2/20)
Length of Visible Light 11h 41m
Length of Day
10h 41m
Waxing Gibbous, 76% of the Moon is Illuminated
Feb 20
Waxing Gibbous
Feb 25
Full
Mar 4
Last Quarter
Mar 11
New
Mar 19
First Quarter

Hourly Weather History & Observations

Time (MST) Temp. Windchill Dew Point Humidity Pressure Visibility Wind Dir Wind Speed Gust Speed Precip Events Conditions
12:56 AM 8.1 °F -7.0 °F -2.0 °F 64% 30.06 in - ESE 11.5 mph - N/A   Unknown
1:56 AM 9.0 °F -9.5 °F -0.9 °F 64% 30.03 in - SE 18.4 mph - N/A   Unknown
2:56 AM 7.0 °F -14.0 °F -0.9 °F 70% 30.01 in - SE 23.0 mph 33.4 mph N/A   Unknown
3:56 AM 6.1 °F -10.9 °F -2.0 °F 69% 30.01 in - SE 13.8 mph 26.5 mph N/A   Unknown
4:56 AM 3.0 °F -8.0 °F -2.9 °F 76% 30.03 in - East 5.8 mph - N/A   Unknown
5:56 AM 3.9 °F -9.4 °F -2.0 °F 76% 30.02 in - East 8.1 mph - N/A   Unknown
6:56 AM 3.0 °F -10.5 °F -2.0 °F 80% 30.03 in - ESE 8.1 mph - N/A   Unknown
7:56 AM 5.0 °F -6.9 °F -0.9 °F 76% 30.04 in - ESE 6.9 mph - N/A   Unknown
8:56 AM 10.0 °F -10.0 °F -0.0 °F 64% 30.01 in - SE 23.0 mph 31.1 mph N/A   Unknown
9:56 AM 14.0 °F -5.1 °F 1.9 °F 59% 29.99 in - SE 24.2 mph - N/A   Unknown
10:56 AM 17.1 °F -1.0 °F 1.9 °F 52% 29.99 in - SSE 24.2 mph 29.9 mph N/A   Unknown
11:56 AM 19.9 °F 3.9 °F 3.9 °F 50% 29.98 in - SE 20.7 mph 28.8 mph N/A   Unknown
12:56 PM 25.0 °F 10.6 °F 5.0 °F 43% 29.94 in - SE 20.7 mph 27.6 mph N/A   Unknown
1:56 PM 28.0 °F 14.9 °F 8.1 °F 43% 29.91 in - SSE 19.6 mph 27.6 mph N/A   Unknown
2:56 PM 30.0 °F 18.3 °F 8.1 °F 40% 29.90 in - SE 17.3 mph - N/A   Unknown
3:56 PM 28.9 °F 17.3 °F 7.0 °F 40% 29.91 in - ESE 16.1 mph - N/A   Unknown
4:56 PM 26.1 °F 13.6 °F 8.1 °F 47% 29.93 in - ESE 16.1 mph 21.9 mph N/A   Unknown
5:56 PM 21.0 °F 5.7 °F 6.1 °F 53% 29.96 in - SE 19.6 mph - N/A   Unknown
6:56 PM 18.0 °F 4.2 °F 7.0 °F 62% 29.99 in - ESE 13.8 mph - N/A   Unknown
7:56 PM 17.1 °F 5.8 °F 8.1 °F 68% 29.99 in - East 9.2 mph - N/A   Unknown
8:56 PM 18.0 °F 6.9 °F 10.0 °F 71% 29.99 in - East 9.2 mph - N/A   Unknown
9:56 PM 19.0 °F 6.1 °F 10.9 °F 71% 29.98 in - East 12.7 mph - N/A   Unknown
10:56 PM 19.0 °F 6.8 °F 12.0 °F 74% 29.97 in - East 11.5 mph - N/A   Unknown
11:56 PM 18.0 °F 6.1 °F 10.9 °F 74% 29.97 in - ENE 10.4 mph - N/A   Unknown